YAOGAN 45

基本信息
目录编号:
65563
目录名称:
YAOGAN 45
国际标识:
2025-202A
轨道中心:
EARTH
卫星名称:
YAOGAN 45
卫星全名:
YAOGAN 45
卫星状态:
在轨 (已飞行42 天)
发射日期:
2025-09-08 UTC
国别 :
中国 (CN)
星等 :
--
轨道信息
数据来源 国际轨道数据
星历时间: 2025-10-16T18:07:47+0800
4天前
查看轨道信息
半长轴: 13874.799km
偏心率: 0.0003375
轨道倾角: 20.013°
近地点辐角 296.706°
升交点赤经 8.315°
平近点角 63.280°
近地点: 7491.981km
远地点: 7501.347km
周期: 271.081分钟
每日圈数: 5.312057
详细信息
使用方式:
暂无
2D轨道图
3D轨道图
轨道高度分析图
轨道倾角分析图
轨道综合分析图
查看轨道综合分析图